Disclaimer

Please do not use the information listed here in-flight or in-navigation, as they are not provided to us by the airports but are provided by volunteers, so they might be outdated.

Search


Regions


Airport information page

Radio informations:
Tower (TWR) - 119.7 MHz

Airport informations:
Latitude: 61° 02' 40.39" N
Longitude: 028° 08' 39.83" E
Elevation: 349 feet - 106 meters
Operating hours: N/A
Operating agency: Civil government, landing fees and diplomatic clearance may be required
Timezone: UTC+2(+3DT) - Last Sunday in March to last Sunday in October
Fuel: Jet A1, without icing nhibitor.

100/130 MIL Spec, low lead, aviation gasoline (BLUE)

Runway information:
06/24 - 8202 x 197 feet< - >2500 x 60 meters

Recent METARs:
EFLP 212120Z AUTO 31007KT CAVOK M20/M22 Q1015
EFLP 212150Z AUTO 30006KT CAVOK M20/M22 Q1015
EFLP 212220Z AUTO 30005KT CAVOK M20/M22 Q1015

Airport on the map: